Regional Weather Roundup
Issued by NWS

Home | Current Version | Previous Version | Text Only | Print | Product List | Glossary On
Versions: 1 2 3 4 5 6 7 8 9 10 11 12 13 14 15 16 17 18 19 20 21 22 23 24 25 26 27 28 29 30 31 32 33 34 35 36 37 38 39 40 41 42 43 44 45 46 47 48 49
000
ASCA42 TJSJ 281610
RWRPR
PUERTO RICO/U.S. VIRGIN ISLANDS HOURLY WEATHER ROUNDUP
NATIONAL WEATHER SERVICE SAN JUAN PR
1200 PM AST SAT FEB 28 2015

PRZ001-004-281700-
PUERTO RICO

CITY           SKY/WX    TMP DP  RH WIND       PRES   REMARKS
SAN JUAN LMM   PTSUNNY   82  73  74 E21       30.13F
MAYAGUEZ       PTSUNNY   84  72  65 E13       30.13
AGUADILLA      CLOUDY    79  70  73 SE14G25   30.16F
CEIBA          PTSUNNY   84  72  65 NE9G18    30.16F
$$

PRZ006-007-281700-
U.S. VIRGIN ISLANDS

CITY           SKY/WX    TMP DP  RH WIND       PRES   REMARKS
CHARLOTTE AMA  PTSUNNY   82  72  69 E15       30.12F
$$

HOURLY WEATHER ROUNDUP FOR THE NEWS MEDIA

CITY           SKY/WX    TMP DP  RH WIND       PRES   REMARKS
ORLANDO        CLOUDY    65  63  93 N8        30.37R FOG
NEW YORK       MOSUNNY   24  -1  33 N5        30.83S WCI  18
NEWARK         MOSUNNY   22   0  38 VRB3      30.83S
CHICAGO        MOSUNNY   10  -1  61 SE7       30.70F WCI  -1
HARTFORD       SUNNY     22  -2  35 SW5       30.74S WCI  16
BOSTON         SUNNY     22   1  40 NW7       30.75S WCI  13
DALLAS         FRZ DRZL  28  27  93 NE6       30.41S FOG     WCI  22
PHILADELPHIA   PTSUNNY   24  -2  32 N6        30.86S WCI  17
LOS ANGELES    PTSUNNY   57  44  62 W14       29.83R
WASHINGTON DC  PTSUNNY   22  -3  33 N5        30.86F WCI  16



USA.gov is the U.S. government's official web portal to all federal, state and local government web resources and services.